Location: Cahas Mountain Overlook
(37.0833°N, 80.1000°W)
Time: 09:16:35
(UTC-05:00)

S-56A Canister/Altair - Pass Details

Date: 07 December 2023
Orbit: 640 x 2488 km, 38.9° (Epoch: 25 February)

Event Time Altitude Azimuth Distance (km) Brightness Sun altitude
Rises 13:19:00 0° 273° (W) 3,048 10.8 28.2°
Reaches altitude 10° 13:21:24 10° 276° (W) 2,056 10.0 28.1°
Maximum altitude 13:25:54 70° 0° (N) 682 7.5 27.8°
Drops below altitude 10° 13:30:38 10° 85° (E) 2,159 9.7 27.5°
Sets 13:33:13 0° 88° (E) 3,217 10.5 27.3°
